Regional Weather Roundup
Issued by NWS Wilmington, NC

Home | Current Version | Previous Version | Text Only | Print | Product List | Glossary On
Versions: 1 2 3 4 5 6 7 8 9 10 11 12 13 14 15 16 17 18 19 20 21 22 23 24 25 26 27 28
000
ASUS42 KILM 300313
RWRILM
RWRILM
REGIONAL HOURLY WEATHER ROUNDUP
NATIONAL WEATHER SERVICE WILMINGTON NC
1100 PM EDT MON AUG 29 2016

NOTE: "FAIR" INDICATES FEW OR NO CLOUDS BELOW 12,000 FEET WITH NO
SIGNIFICANT WEATHER AND/OR OBSTRUCTIONS TO VISIBILITY.

...............WFO WILMINGTON COUNTY WARNING AREA...............

......COASTAL NC AND SC COUNTIES......

CITY           SKY/WX    TMP DP  RH WIND       PRES   REMARKS
WILMINGTON     PTCLDY    73  72  96 N3        30.06S
N MYRTLE BEACH PTCLDY    75  72  90 N6        30.06R
MYRTLE BEACH   NOT AVBL

......INLAND NC AND SC COUNTIES.......

CITY           SKY/WX    TMP DP  RH WIND       PRES   REMARKS
LUMBERTON      MOCLDY    75  73  93 CALM      30.07F
ELIZABETHTOWN  PTCLDY    73  73 100 CALM      30.07F
WHITEVILLE     CLEAR     74  71  92 CALM      30.07S
FLORENCE       PTCLDY    77  71  82 NE6       30.08S
DARLINGTON     PTCLDY    77  70  79 CALM      30.09S
KINGSTREE        N/A     70  68  94 CALM      30.07R FOG
HARTSVILLE     FAIR      77  63  61 NE7       30.08S
BENNETTSVILLE  MOCLDY    81  70  69 CALM      30.08S
CONWAY         FAIR      73  73 100 CALM      30.07R FOG
GEORGETOWN     FAIR      73  72  94 CALM      30.06S
MARION         FAIR      73  70  88 CALM      30.07F

....................REST OF NORTH CAROLINA......................

.........EASTERN NC.........

CITY           SKY/WX    TMP DP  RH WIND       PRES   REMARKS
CAPE HATTERAS  PTCLDY    80  76  87 NE8       30.05R
JACKSONVILLE   CLEAR     73  73 100 N3        30.07S
MOREHEAD CITY  MOCLDY    78  72  81 NE9       30.05S
KENANSVILLE    CLEAR     72  72 100 CALM      30.08S
NEW BERN       PTCLDY    75  71  87 NE7       30.07F
ELIZABETH CITY CLEAR     74  70  87 N8        30.08S

.........CENTRAL NC.........

CITY           SKY/WX    TMP DP  RH WIND       PRES   REMARKS
RALEIGH DURHAM PTCLDY    74  64  71 N3        30.10S
ROCKY MOUNT    MOCLDY    76  74  93 CALM      30.09S
ROANOKE RAPIDS NOT AVBL
FAYETTEVILLE   CLOUDY    80  71  74 CALM      30.08S
HOFFMAN        CLOUDY    78  64  61 E2        30.09S

.........WESTERN NC.........

CITY           SKY/WX    TMP DP  RH WIND       PRES   REMARKS
CHARLOTTE      CLOUDY    80  62  54 E6        30.12S
GREENSBORO     PTCLDY    77  65  66 N3        30.13S
HICKORY        NOT AVBL
BOONE          NOT AVBL
ASHEVILLE      NOT AVBL

.....................REST OF SOUTH CAROLINA.....................

.........EASTERN SC.........

CITY           SKY/WX    TMP DP  RH WIND       PRES   REMARKS
CHARLESTON     PTCLDY    76  73  91 CALM      30.05S
BEAUFORT MCAS  CLEAR     75  73  93 NE3       30.06R
HILTON HEAD    PTCLDY    82  77  83 VRB6G12   30.05F HX  91

.........CENTRAL SC.........

CITY           SKY/WX    TMP DP  RH WIND       PRES   REMARKS
COLUMBIA       PTCLDY    79  74  84 CALM      30.06F
ORANGEBURG     CLEAR     74  73  97 CALM      30.07S
SUMTER SHAW    CLEAR     74  71  89 NE3       30.05S

.........WESTERN SC.........

CITY           SKY/WX    TMP DP  RH WIND       PRES   REMARKS
GREENVILLE     NOT AVBL
ROCK HILL      MOCLDY    76  63  64 CALM      30.12S
ANDERSON       CLEAR     77  65  66 NE5       30.10S
CLEMSON        NOT AVBL
GREENWOOD      PTCLDY    74  66  76 CALM      30.11S


...................COASTAL AND OFFSHORE REPORTS..................

................LOCAL PIERS AND NC RESERVE................


STATION/POSITION TIME  SKY/WX   TEMP    WIND        PRES    VSBY
                                AIR SEA DIR/SP/G
                 (UTC)          (F)     (DEG/KT/KT) (MB)    (MI)
JOHNY MRCER PIER 0200            77 86              1016.9R
NC RESRV MASNBRO NOT AVBL
OCEAN CREST PIER NOT AVBL
SPRINGMAID  PIER 0200            80 85              1017.3F


................COASTAL AND OFFSHORE BUOYS................


STATION/POSITION TIME  SKY/WX   TEMP    WIND        PRES    VSBY
                                AIR SEA DIR/SP/G
                 (UTC)          (F)     (DEG/KT/KT) (MB)    (MI)
DIMNDSHOAL 41025 0250            82 84   30/ 16/ 19 1016.6S
WVE H/P(F/S)=  6/13 SWL H/P/D(F/S/D)=  3/110/13

CAPE LOOKOUT     0300            81      30/ 18/ 20 1017.2R
ONSLOW BAY 41036 NOT AVBL
ONSLOW BAY 41064 0208            83 84   40/ 16/ 19 1016.8F
ONSLOW BAY 41159 0225               84                N/A
WVE H/P(F/S)=  5/ 7 SWL H/P/D(F/S/D)=  2/100/13

5SE WRITBC 41038 NOT AVBL
MASNBO INL 41110 NOT AVBL
WILM HARBR 41108 0226               84                N/A
WVE H/P(F/S)=  3/ 8 SWL H/P/D(F/S/D)=  2/140/13

27SE WRITB 41037 0208            81 84  360/ 10/ 14 1017.3R
FRYING PAN 41013 0300            83 85   30/ 12/ 16 1016.8R
SUNST NRSH 41024 0208            78 85   20/  8/ 12 1017.2F
CAPRS NRSH 41029 0208            82 84   80/ 10/ 16 1017.1R
EDISTO     41004 0250            83 85   70/ 12/ 14 1016.6S
WVE H/P(F/S)=  4/ 8 SWL H/P/D(F/S/D)=  3/110/ 8



..........OFFSHORE BUOYS BEYOND 100 NM OFFSHORE...........
.....IN A TRIANGLE---HAT TO BERMUDA TO BAHAMAS TO HAT.....


STATION/POSITION TIME  SKY/WX   TEMP    WIND        PRES    VSBY
                                AIR SEA DIR/SP/G
                 (UTC)          (F)     (DEG/KT/KT) (MB)    (MI)
150E HAT   41001 NOT AVBL
W BERMUDA  41048 0250            83 84  110/  4/  6 1017.9F
WVE H/P(F/S)=  5/11 SWL H/P/D(F/S/D)=  5/ 80/11

ATLANTIC S 41049 0250            83 86  210/  4/  6 1019.0S
WVE H/P(F/S)=  5/ 8 SWL H/P/D(F/S/D)=  5/ 60/ 8

E BAHAMAS  41046 0300            82 85  180/ 10/ 12 1017.1S
NE BAHAMAS 41047 0300            84 87  120/  6/ 10 1017.0R
120E CANVRL41010 NOT AVBL

END




USA.gov is the U.S. government's official web portal to all federal, state and local government web resources and services.